Weather History for Crosby, ND

Change the Weather History Date:

Wednesday, May 7, 2014

  Actual Average (KISN) Record (KISN)
Temperature  
Mean Temperature 42 °F 51 °F  
Max Temperature 48 °F 65 °F 91 °F (1992)
Min Temperature 35 °F 37 °F 19 °F (1980)
Degree Days  
Heating Degree Days 24 14  
Month to date heating degree days 104  
Since 1 July heating degree days 8629  
Cooling Degree Days 0 0  
Month to date cooling degree days 0  
Year to date cooling degree days 1  
Moisture  
Dew Point 33 °F    
Average Humidity 78    
Maximum Humidity 100    
Minimum Humidity 37    
Precipitation  
Precipitation 0.01 in 0.05 in 0.81 in (1940)
Month to date precipitation 0.34  
Year to date precipitation 3.03  
Sea Level Pressure  
Sea Level Pressure 29.93 in    
Wind  
Wind Speed 17 mph (NNW)    
Max Wind Speed 21 mph    
Max Gust Speed 29 mph    
T = Trace of Precipitation, MM = Missing Value Source: NWS Daily Summary

Daily Weather History Graph

Daily Weather History Graph

Search for Another Location

Airport:

Trip Planner

Search our weather history database for the weather conditions in past years. The results will help you decide how hot, cold, wet, or windy it might be!

Date:

Astronomy

May. 07, 2014 Rise Set
Actual Time 6:22 AM CDT 9:17 PM CDT
Civil Twilight 5:46 AM CDT 9:54 PM CDT
Nautical Twilight 4:58 AM CDT 10:41 PM CDT
Astronomical Twilight 4:01 AM CDT 11:40 PM CDT
Moon 1:49 PM CDT (5/7) 2:59 AM CDT (5/7)
Length of Visible Light 16h 08m
Length of Day
14h 55m
First Quarter, 55% of the Moon is Illuminated
May 7
First Quarter
May 14
Full
May 21
Last Quarter
May 28
New
Jun 5
First Quarter

Hourly Weather History & Observations

Time (CDT) Temp. Windchill Dew Point Humidity Pressure Visibility Wind Dir Wind Speed Gust Speed Precip Events Conditions
12:15 AM 39.2 °F 29.8 °F 39.2 °F 100% 29.86 in - NNW 18.4 mph 27.6 mph N/A   Overcast
12:35 AM 39.2 °F 29.3 °F 39.2 °F 100% 29.86 in - NNW 20.7 mph 28.8 mph N/A   Overcast
12:55 AM 39.2 °F 29.3 °F 39.2 °F 100% 29.86 in - NNW 20.7 mph 27.6 mph N/A   Overcast
1:15 AM 39.2 °F 29.6 °F 39.2 °F 100% 29.86 in - NNW 19.6 mph 26.5 mph N/A   Overcast
1:35 AM 39.2 °F 29.8 °F 39.2 °F 100% 29.87 in - NNW 18.4 mph 25.3 mph N/A   Overcast
1:55 AM 39.2 °F 29.6 °F 39.2 °F 100% 29.87 in - NNW 19.6 mph 26.5 mph N/A   Overcast
2:15 AM 39.2 °F 29.6 °F 39.2 °F 100% 29.87 in - NNW 19.6 mph 25.3 mph N/A   Overcast
2:35 AM 39.2 °F 29.8 °F 39.2 °F 100% 29.88 in - NNW 18.4 mph 23.0 mph N/A Rain Light Rain
2:55 AM 39.2 °F 29.3 °F 39.2 °F 100% 29.87 in - NNW 20.7 mph 25.3 mph 0.01 in Rain Light Rain
3:15 AM 39.2 °F 29.6 °F 39.2 °F 100% 29.88 in - NNW 19.6 mph 27.6 mph N/A Rain Light Rain
3:35 AM 37.4 °F 26.9 °F 37.4 °F 100% 29.88 in - NNW 20.7 mph - N/A   Overcast
4:15 AM 37.4 °F 26.9 °F 37.4 °F 100% 29.89 in - NNW 20.7 mph 25.3 mph N/A   Overcast
4:35 AM 37.4 °F 27.8 °F 37.4 °F 100% 29.90 in - NNW 17.3 mph 25.3 mph N/A   Overcast
4:55 AM 37.4 °F 28.2 °F 37.4 °F 100% 29.89 in - NNW 16.1 mph - N/A   Overcast
5:15 AM 37.4 °F 27.5 °F 37.4 °F 100% 29.89 in - North 18.4 mph 24.2 mph N/A   Overcast
5:35 AM 37.4 °F 28.5 °F 37.4 °F 100% 29.90 in - NNW 15.0 mph 21.9 mph N/A   Overcast
6:15 AM 37.4 °F 29.3 °F 37.4 °F 100% 29.90 in - North 12.7 mph - N/A   Unknown
6:35 AM 37.4 °F 28.9 °F 37.4 °F 100% 29.91 in - North 13.8 mph - N/A   Unknown
6:55 AM 37.4 °F 28.2 °F 37.4 °F 100% 29.92 in - North 16.1 mph - N/A   Unknown
7:15 AM 37.4 °F 28.5 °F 37.4 °F 100% 29.92 in - North 15.0 mph 19.6 mph N/A   Unknown
7:35 AM 37.4 °F 27.8 °F 37.4 °F 100% 29.92 in - North 17.3 mph - N/A   Unknown
7:55 AM 37.4 °F 28.5 °F 37.4 °F 100% 29.92 in - North 15.0 mph - N/A   Unknown
8:15 AM 37.4 °F 27.5 °F 37.4 °F 100% 29.91 in - North 18.4 mph 23.0 mph N/A   Overcast
8:35 AM 37.4 °F 28.2 °F 37.4 °F 100% 29.92 in - North 16.1 mph - N/A   Overcast
8:55 AM 37.4 °F 27.8 °F 35.6 °F 93% 29.93 in - North 17.3 mph 24.2 mph N/A   Overcast
9:15 AM 37.4 °F 28.5 °F 37.4 °F 100% 29.93 in - North 15.0 mph - N/A   Overcast
9:35 AM 37.4 °F 27.8 °F 37.4 °F 100% 29.93 in - NNW 17.3 mph - N/A   Unknown
9:55 AM 37.4 °F 27.8 °F 37.4 °F 100% 29.93 in - North 17.3 mph 21.9 mph N/A   Unknown
10:15 AM 37.4 °F 26.9 °F 35.6 °F 93% 29.94 in - NNW 20.7 mph - N/A   Unknown
10:55 AM 39.2 °F 29.3 °F 32.0 °F 75% 29.95 in - North 20.7 mph 25.3 mph N/A   Partly Cloudy
11:35 AM 41.0 °F 31.9 °F 30.2 °F 65% 29.95 in - North 19.6 mph - N/A   Mostly Cloudy
11:55 AM 41.0 °F 31.9 °F 28.4 °F 61% 29.95 in - North 19.6 mph - N/A   Mostly Cloudy
12:15 PM 41.0 °F 32.2 °F 30.2 °F 65% 29.95 in - North 18.4 mph 23.0 mph N/A   Unknown
12:35 PM 42.8 °F 34.5 °F 28.4 °F 57% 29.95 in - North 18.4 mph - N/A   Mostly Cloudy
12:55 PM 42.8 °F 34.5 °F 30.2 °F 61% 29.95 in - NNW 18.4 mph 24.2 mph N/A   Mostly Cloudy
1:15 PM 41.0 °F 32.5 °F 28.4 °F 61% 29.96 in - North 17.3 mph - N/A   Mostly Cloudy
1:35 PM 41.0 °F 32.2 °F 28.4 °F 61% 29.97 in - North 18.4 mph 21.9 mph N/A   Mostly Cloudy
1:55 PM 41.0 °F 33.5 °F 28.4 °F 61% 29.97 in - NNW 13.8 mph 20.7 mph N/A   Partly Cloudy
2:15 PM 42.8 °F 35.1 °F 28.4 °F 57% 29.97 in - NNW 16.1 mph - N/A   Partly Cloudy
2:35 PM 44.6 °F 38.4 °F 28.4 °F 53% 29.96 in - North 12.7 mph - N/A   Partly Cloudy
2:55 PM 44.6 °F 38.1 °F 28.4 °F 53% 29.95 in - North 13.8 mph - N/A   Partly Cloudy
3:15 PM 44.6 °F 37.4 °F 32.0 °F 61% 29.95 in - North 16.1 mph 21.9 mph N/A   Scattered Clouds
3:35 PM 44.6 °F 37.8 °F 32.0 °F 61% 29.95 in - NNW 15.0 mph 23.0 mph N/A   Scattered Clouds
3:55 PM 46.4 °F 39.8 °F 32.0 °F 57% 29.94 in - North 16.1 mph 24.2 mph N/A   Mostly Cloudy
4:15 PM 46.4 °F 39.8 °F 30.2 °F 53% 29.94 in - NNW 16.1 mph 20.7 mph N/A   Scattered Clouds
4:35 PM 46.4 °F 39.8 °F 30.2 °F 53% 29.93 in - North 16.1 mph 25.3 mph N/A   Scattered Clouds
5:15 PM 46.4 °F 39.8 °F 28.4 °F 50% 29.93 in - North 16.1 mph 19.6 mph N/A   Clear
5:35 PM 46.4 °F 40.7 °F 28.4 °F 50% 29.94 in - North 12.7 mph - N/A   Partly Cloudy
5:55 PM 46.4 °F 39.8 °F 24.8 °F 43% 29.93 in - North 16.1 mph 20.7 mph N/A   Mostly Cloudy
6:15 PM 48.2 °F - 26.6 °F 43% 29.94 in - North 12.7 mph 20.7 mph N/A   Mostly Cloudy
6:35 PM 48.2 °F - 26.6 °F 43% 29.94 in - North 12.7 mph - N/A   Partly Cloudy
6:55 PM 48.2 °F - 24.8 °F 40% 29.94 in - NNW 13.8 mph - N/A   Clear
7:15 PM 48.2 °F - 23.0 °F 37% 29.94 in - North 15.0 mph - N/A   Clear
7:35 PM 48.2 °F - 24.8 °F 40% 29.94 in - North 13.8 mph 17.3 mph N/A   Clear
7:55 PM 46.4 °F 40.1 °F 24.8 °F 43% 29.95 in - NNW 15.0 mph 20.7 mph N/A   Clear
8:15 PM 44.6 °F 39.2 °F 26.6 °F 49% 29.96 in - NNW 10.4 mph - N/A   Clear
8:55 PM 41.0 °F 37.1 °F 30.2 °F 65% 29.97 in - NNW 5.8 mph - N/A   Clear
9:15 PM 37.4 °F 32.1 °F 32.0 °F 81% 29.98 in - NNW 6.9 mph - N/A   Clear
9:35 PM 35.6 °F 29.2 °F 32.0 °F 87% 29.98 in - NW 8.1 mph - N/A   Unknown
9:55 PM 35.6 °F 29.2 °F 32.0 °F 87% 29.99 in - NW 8.1 mph - N/A   Unknown
10:15 PM 37.4 °F 30.8 °F 30.2 °F 75% 29.98 in - NNW 9.2 mph - N/A   Scattered Clouds
10:35 PM 35.6 °F 28.6 °F 32.0 °F 87% 29.98 in - NNW 9.2 mph - N/A   Mostly Cloudy
10:55 PM 35.6 °F 29.9 °F 32.0 °F 87% 29.99 in - NW 6.9 mph - N/A   Unknown
11:15 PM 35.6 °F 29.9 °F 32.0 °F 87% 29.99 in - NNW 6.9 mph - N/A   Mostly Cloudy
11:35 PM 37.4 °F 31.4 °F 32.0 °F 81% 29.98 in - NNW 8.1 mph - N/A   Mostly Cloudy
11:55 PM 37.4 °F 30.8 °F 28.4 °F 70% 29.98 in - NNW 9.2 mph - N/A   Scattered Clouds